Weather History for Minneapolis, MN

Change the Weather History Date:

Monday, March 11, 2013

  Actual Average Record
Temperature  
Mean Temperature 27 °F 30 °F  
Max Temperature 31 °F 39 °F 66 °F (2012)
Min Temperature 23 °F 22 °F -27 °F (1948)
Degree Days  
Heating Degree Days 38 35  
Month to date heating degree days 422 404  
Since 1 July heating degree days 5956 6194  
Cooling Degree Days 0 0  
Month to date cooling degree days 0 0  
Year to date cooling degree days 0 0  
Moisture  
Dew Point 22 °F    
Average Humidity 74    
Maximum Humidity 85    
Minimum Humidity 63    
Precipitation  
Precipitation 0.00 in 0.05 in 1.30 in (1990)
Month to date precipitation 1.37 0.57  
Year to date precipitation 3.56 2.24  
Snow  
Snow 0.00 in 0.40 in 8.20 in (1962)
Month to date snowfall 9.3 4.5  
Since 1 July snowfall 44.8 46.2  
Snow Depth 6.00 in    
Sea Level Pressure  
Sea Level Pressure 29.82 in    
Wind  
Wind Speed 11 mph (NW)    
Max Wind Speed 18 mph    
Max Gust Speed 23 mph    
Visibility 10 miles    
Events      
T = Trace of Precipitation, MM = Missing Value Source: NWS Daily Summary

Daily Weather History Graph

Daily Weather History Graph

Search for Another Location

Airport:

Trip Planner

Search our weather history database for the weather conditions in past years. The results will help you decide how hot, cold, wet, or windy it might be!

Date:

Astronomy

Mar. 11, 2013 Rise Set
Actual Time 7:32 AM CDT 7:14 PM CDT
Civil Twilight 7:03 AM CDT 7:43 PM CDT
Nautical Twilight 6:29 AM CDT 8:17 PM CDT
Astronomical Twilight 5:54 AM CDT 8:51 PM CDT
Moon 7:05 AM CDT (3/11) 7:29 PM CDT (3/11)
Length of Visible Light 12h 40m
Length of Day
11h 41m
Waning Crescent, 0% of the Moon is Illuminated
Mar 11
Waning Crescent
Mar 11
New
Mar 19
First Quarter
Mar 27
Full
Apr 2
Last Quarter

Hourly Weather History & Observations

Time (CDT) Temp. Windchill Dew Point Humidity Pressure Visibility Wind Dir Wind Speed Gust Speed Precip Events Conditions
12:53 AM 30.9 °F 20.2 °F 25.0 °F 79% 29.88 in 9.0 mi North 15.0 mph 21.9 mph N/A   Overcast
1:53 AM 30.0 °F 19.5 °F 24.1 °F 79% 29.87 in 10.0 mi North 13.8 mph - N/A   Overcast
2:53 AM 30.0 °F 20.5 °F 24.1 °F 79% 29.86 in 10.0 mi North 11.5 mph 19.6 mph N/A   Overcast
3:53 AM 28.9 °F 18.2 °F 23.0 °F 78% 29.85 in 10.0 mi NNW 13.8 mph 19.6 mph N/A   Overcast
4:53 AM 28.4 °F 18.0 °F 23.0 °F 80% 29.80 in 10.0 mi North 12.7 mph 19.6 mph N/A   Overcast
5:53 AM 28.0 °F 16.1 °F 21.9 °F 78% 29.82 in 10.0 mi North 16.1 mph 23.0 mph N/A   Overcast
6:53 AM 28.4 °F 19.7 °F 21.2 °F 74% 29.78 in 10.0 mi North 9.2 mph 20.7 mph N/A   Overcast
7:53 AM 27.0 °F 16.1 °F 21.9 °F 81% 29.82 in 10.0 mi North 12.7 mph 18.4 mph N/A   Overcast
8:53 AM 27.0 °F 16.1 °F 21.9 °F 81% 29.83 in 10.0 mi NNW 12.7 mph - N/A   Overcast
9:53 AM 27.0 °F 18.0 °F 23.0 °F 85% 29.83 in 10.0 mi NNW 9.2 mph - N/A   Overcast
10:37 AM 28.4 °F 18.5 °F 21.2 °F 74% 29.79 in 10.0 mi NNW 11.5 mph - N/A   Overcast
10:53 AM 28.0 °F 17.5 °F 23.0 °F 81% 29.82 in 10.0 mi NNW 12.7 mph - N/A   Overcast
11:53 AM 28.9 °F 19.8 °F 24.1 °F 82% 29.81 in 10.0 mi NNW 10.4 mph - N/A   Overcast
12:53 PM 28.9 °F 18.6 °F 24.1 °F 82% 29.80 in 10.0 mi NW 12.7 mph - N/A   Overcast
1:31 PM 28.4 °F 18.5 °F 23.0 °F 80% 29.76 in 10.0 mi North 11.5 mph - N/A   Overcast
1:53 PM 28.9 °F 18.6 °F 24.1 °F 82% 29.78 in 10.0 mi NW 12.7 mph - N/A   Overcast
2:53 PM 30.0 °F 19.1 °F 23.0 °F 75% 29.78 in 10.0 mi NW 15.0 mph - N/A   Overcast
3:01 PM 30.2 °F 20.2 °F 23.0 °F 75% 29.74 in 10.0 mi NW 12.7 mph - N/A   Overcast
3:53 PM 30.0 °F 21.1 °F 21.9 °F 72% 29.78 in 10.0 mi NW 10.4 mph - N/A   Overcast
4:53 PM 30.9 °F 23.5 °F 21.0 °F 67% 29.79 in 10.0 mi WNW 8.1 mph - N/A   Overcast
5:14 PM 30.2 °F 21.9 °F 21.2 °F 69% 29.75 in 10.0 mi NW 9.2 mph - N/A   Overcast
5:53 PM 30.9 °F 22.2 °F 19.9 °F 64% 29.80 in 10.0 mi NW 10.4 mph - N/A   Overcast
6:53 PM 30.0 °F 19.5 °F 21.0 °F 69% 29.81 in 10.0 mi NW 13.8 mph - N/A   Overcast
7:53 PM 28.9 °F 21.1 °F 19.9 °F 69% 29.82 in 10.0 mi WNW 8.1 mph - N/A   Overcast
8:53 PM 28.0 °F 18.1 °F 19.9 °F 72% 29.84 in 10.0 mi West 11.5 mph - N/A   Mostly Cloudy
9:53 PM 27.0 °F 18.0 °F 19.0 °F 72% 29.86 in 10.0 mi West 9.2 mph - N/A   Overcast
10:53 PM 25.0 °F 15.5 °F 18.0 °F 75% 29.87 in 10.0 mi West 9.2 mph - N/A   Mostly Cloudy
11:53 PM 23.0 °F 14.7 °F 18.0 °F 81% 29.88 in 10.0 mi West 6.9 mph - N/A   Mostly Cloudy